Weather History for St Johns West Climate, NF

Change the Weather History Date:

Thursday, January 16, 2014

  Actual Average Record
Temperature  
Mean Temperature 40 °F -  
Max Temperature 48 °F - - ()
Min Temperature 31 °F - - ()
Degree Days  
Heating Degree Days 26    
Moisture  
Dew Point 37 °F    
Average Humidity 95    
Maximum Humidity 97    
Minimum Humidity 87    
Precipitation  
Precipitation 0.24 in - - ()
Sea Level Pressure  
Sea Level Pressure 30.05 in    
Wind  
Wind Speed 3 mph ()    
Max Wind Speed 8 mph    
Max Gust Speed -    
T = Trace of Precipitation, MM = Missing Value Source: Averaged Metar Reports

Daily Weather History Graph

Daily Weather History Graph

Search for Another Location

Airport:

Trip Planner

Search our weather history database for the weather conditions in past years. The results will help you decide how hot, cold, wet, or windy it might be!

Date:

Astronomy

Jan. 16, 2014 Rise Set
Actual Time 7:43 AM NST 4:38 PM NST
Civil Twilight 7:09 AM NST 5:13 PM NST
Nautical Twilight 6:30 AM NST 5:51 PM NST
Astronomical Twilight 5:54 AM NST 6:28 PM NST
Moon 5:31 PM NST (1/16) 7:27 AM NST (1/16)
Length of Visible Light 10h 04m
Length of Day
8h 54m
Full, 100% of the Moon is Illuminated
Jan 16
Full
Jan 24
Last Quarter
Jan 30
New
Feb 6
First Quarter
Feb 14
Full

Hourly Weather History & Observations

Time (NST) Temp. Windchill Dew Point Humidity Pressure Visibility Wind Dir Wind Speed Gust Speed Precip Events Conditions
12:30 AM 31.3 °F 27.9 °F 30.2 °F 96% 30.17 in - WSW 3.5 mph - N/A   Unknown
1:30 AM 32.0 °F - 30.9 °F 96% 30.17 in - Calm Calm - N/A   Unknown
2:30 AM 34 °F - 33 °F 92% 30.16 in - SSE 1.2 mph - -  
2:30 AM 33.6 °F - 32.5 °F 96% 30.16 in - South 2.3 mph - N/A   Unknown
3:30 AM 38.1 °F 33.7 °F 34.7 °F 87% 30.17 in - South 5.8 mph - N/A   Unknown
4:30 AM 38.3 °F - 34.9 °F 87% 30.15 in - East 1.2 mph - N/A   Unknown
5:30 AM 37.2 °F 34.7 °F 34.2 °F 89% 30.14 in - SE 3.5 mph - N/A   Unknown
6:30 AM 35.2 °F 29.5 °F 33.6 °F 94% 30.08 in - SSE 6.9 mph - N/A   Unknown
7:30 AM 35.4 °F - 34.2 °F 95% 30.08 in - ESE 1.2 mph - 0.03 in   Unknown
8:30 AM 35 °F - 34 °F 94% 30.08 in - SSW 2.3 mph - -  
8:30 AM 35.1 °F - 34.0 °F 96% 30.08 in - SSW 2.3 mph - 0.07 in   Unknown
9:30 AM 36.0 °F - 34.9 °F 96% 30.07 in - SW 2.3 mph - 0.05 in   Unknown
10:30 AM 37.0 °F 34.5 °F 35.8 °F 95% 30.04 in - SSE 3.5 mph - 0.09 in   Unknown
11:30 AM 38.8 °F - 37.6 °F 95% 30.00 in - SSE 2.3 mph - 0.07 in   Unknown
12:30 PM 41.9 °F 40.0 °F 40.6 °F 95% 29.96 in - SSW 3.5 mph - 0.02 in   Unknown
1:30 PM 47.8 °F - 46.6 °F 95% 29.96 in - SW 2.3 mph - 0.02 in   Unknown
2:30 PM 47 °F - 46 °F 93% 29.95 in - SSE 2.3 mph - -  
2:30 PM 46.9 °F - 45.7 °F 95% 29.95 in - ESE 2.3 mph - N/A   Unknown
3:30 PM 43.2 °F 38.4 °F 41.9 °F 95% 29.98 in - WNW 8.1 mph - N/A   Unknown
4:30 PM 42.1 °F 40.2 °F 41.0 °F 96% 29.95 in - WSW 3.5 mph - 0.01 in   Unknown
5:30 PM 42.1 °F - 41.2 °F 97% 29.97 in - WSW 2.3 mph - N/A   Unknown
6:30 PM 42.6 °F - 41.7 °F 97% 30.00 in - WSW 2.3 mph - N/A   Unknown
7:30 PM 42.1 °F 40.2 °F 41.2 °F 97% 30.04 in - West 3.5 mph - N/A   Unknown
8:30 PM 41 °F - 40 °F 94% 30.03 in - North 3.5 mph - -  
8:30 PM 41.0 °F 39.0 °F 39.9 °F 96% 30.03 in - ENE 3.5 mph - N/A   Unknown
9:30 PM 37.8 °F 34.2 °F 36.9 °F 97% 30.01 in - NNE 4.6 mph - N/A   Unknown
10:30 PM 37.4 °F 32.1 °F 36.5 °F 97% 30.01 in - ESE 6.9 mph - 0.02 in   Unknown
11:30 PM 36.5 °F - 35.8 °F 97% 29.99 in - SSE 2.3 mph - 0.01 in   Unknown